• în Republica Moldova
  • Lista ţărilor
  • Pe 7 zile
  • Temperatura apei
  • Hartă satelitară
  • Meteo pe hartă
  • Widget-uri
  • user-avatar
    Intrare

    Meteo pe oră la Algiers

    Astăzi, 27 Mai, Sâmbătă

    Timp Temperatura Precipitaţii Vânt Presiune Umiditate
    00:00 +25°C° 0 mm 4 m/s 746 mmHg 65%
    01:00 +25°C° 0,2 mm 4 m/s 746 mmHg 65%
    02:00 +25°C° 0,2 mm 4 m/s 746 mmHg 66%
    03:00 +25°C° 0,2 mm 4 m/s 746 mmHg 66%
    04:00 +25°C° 0 mm 4 m/s 746 mmHg 65%
    05:00 +26°C° 0 mm 4 m/s 746 mmHg 63%
    06:00 +27°C° 0 mm 5 m/s 746 mmHg 62%
    07:00 +28°C° 0 mm 5 m/s 746 mmHg 56%
    08:00 +30°C° 0 mm 5 m/s 747 mmHg 50%
    09:00 +33°C° 0 mm 5 m/s 747 mmHg 43%
    10:00 +34°C° 0 mm 5 m/s 747 mmHg 41%
    11:00 +35°C° 0 mm 5 m/s 747 mmHg 39%
    12:00 +36°C° 0 mm 5 m/s 747 mmHg 37%
    13:00 +36°C° 0 mm 6 m/s 746 mmHg 38%
    14:00 +35°C° 0 mm 6 m/s 746 mmHg 39%
    15:00 +35°C° 0 mm 6 m/s 746 mmHg 40%
    16:00 +33°C° 0 mm 6 m/s 746 mmHg 46%
    17:00 +32°C° 0 mm 6 m/s 746 mmHg 52%
    18:00 +29°C° 0 mm 6 m/s 746 mmHg 58%
    19:00 +27°C° 0 mm 6 m/s 746 mmHg 66%
    20:00 +25°C° 0 mm 5 m/s 747 mmHg 74%
    21:00 +22°C° 0 mm 5 m/s 747 mmHg 82%
    22:00 +22°C° 0 mm 5 m/s 748 mmHg 82%
    23:00 +22°C° 0 mm 5 m/s 748 mmHg 82%

    Mâine, 28 Mai, Duminică

    Timp Temperatura Precipitaţii Vânt Presiune Umiditate
    00:00 +21°C° 0 mm 4 m/s 748 mmHg 82%
    01:00 +21°C° 0 mm 4 m/s 747 mmHg 80%
    02:00 +21°C° 0 mm 4 m/s 747 mmHg 78%
    03:00 +21°C° 0 mm 4 m/s 747 mmHg 76%
    04:00 +22°C° 0 mm 4 m/s 747 mmHg 70%
    05:00 +25°C° 0 mm 4 m/s 748 mmHg 64%
    06:00 +26°C° 0 mm 4 m/s 748 mmHg 58%
    07:00 +29°C° 0 mm 4 m/s 748 mmHg 49%
    08:00 +32°C° 0 mm 5 m/s 748 mmHg 41%
    09:00 +34°C° 0 mm 5 m/s 748 mmHg 33%
    10:00 +35°C° 0 mm 5 m/s 748 mmHg 33%
    11:00 +36°C° 0 mm 6 m/s 748 mmHg 32%
    12:00 +38°C° 0 mm 6 m/s 748 mmHg 32%
    13:00 +36°C° 0 mm 6 m/s 747 mmHg 34%
    14:00 +36°C° 0 mm 6 m/s 747 mmHg 36%
    15:00 +35°C° 0 mm 6 m/s 747 mmHg 38%
    16:00 +34°C° 0 mm 6 m/s 747 mmHg 44%
    17:00 +32°C° 0 mm 6 m/s 747 mmHg 50%
    18:00 +29°C° 0 mm 6 m/s 746 mmHg 56%
    19:00 +27°C° 0 mm 5 m/s 747 mmHg 63%
    20:00 +25°C° 0 mm 5 m/s 747 mmHg 71%
    21:00 +23°C° 0 mm 5 m/s 747 mmHg 78%
    22:00 +22°C° 0 mm 4 m/s 747 mmHg 77%
    23:00 +22°C° 0 mm 4 m/s 747 mmHg 75%

    Poimâine, 29 Mai, Luni

    Timp Temperatura Precipitaţii Vânt Presiune Umiditate
    00:00 +22°C° 0 mm 4 m/s 747 mmHg 74%
    01:00 +22°C° 0 mm 4 m/s 746 mmHg 73%
    02:00 +22°C° 0 mm 4 m/s 746 mmHg 72%
    03:00 +22°C° 0 mm 4 m/s 746 mmHg 71%
    04:00 +24°C° 0 mm 3 m/s 746 mmHg 67%
    05:00 +25°C° 0 mm 3 m/s 746 mmHg 63%
    06:00 +26°C° 0 mm 2 m/s 747 mmHg 59%
    07:00 +27°C° 0 mm 3 m/s 747 mmHg 56%
    08:00 +29°C° 0 mm 3 m/s 747 mmHg 53%
    09:00 +30°C° 0 mm 4 m/s 747 mmHg 50%
    10:00 +30°C° 0 mm 4 m/s 747 mmHg 52%
    11:00 +30°C° 0 mm 5 m/s 747 mmHg 53%
    12:00 +30°C° 0 mm 5 m/s 747 mmHg 55%
    13:00 +30°C° 0 mm 5 m/s 747 mmHg 58%
    14:00 +29°C° 0 mm 4 m/s 747 mmHg 61%
    15:00 +29°C° 0 mm 4 m/s 746 mmHg 63%
    16:00 +28°C° 0 mm 3 m/s 746 mmHg 66%
    17:00 +27°C° 0 mm 3 m/s 746 mmHg 69%
    18:00 +26°C° 0 mm 3 m/s 746 mmHg 72%
    19:00 +25°C° 0,1 mm 3 m/s 747 mmHg 77%
    20:00 +24°C° 0,1 mm 3 m/s 747 mmHg 82%
    21:00 +23°C° 0,1 mm 2 m/s 747 mmHg 87%
    22:00 +22°C° 0,4 mm 3 m/s 747 mmHg 87%
    23:00 +22°C° 0,4 mm 3 m/s 747 mmHg 88%

    30 Mai, Marţi

    Timp Temperatura Precipitaţii Vânt Presiune Umiditate
    00:00 +22°C° 0,4 mm 4 m/s 747 mmHg 89%
    01:00 +21°C° 0,6 mm 4 m/s 747 mmHg 91%
    02:00 +21°C° 0,6 mm 3 m/s 747 mmHg 93%
    03:00 +21°C° 0,6 mm 3 m/s 747 mmHg 95%
    04:00 +21°C° 0,2 mm 3 m/s 748 mmHg 94%
    05:00 +21°C° 0,2 mm 3 m/s 748 mmHg 93%
    06:00 +21°C° 0,2 mm 3 m/s 748 mmHg 93%
    07:00 +22°C° 0,2 mm 3 m/s 749 mmHg 88%
    08:00 +22°C° 0,2 mm 3 m/s 749 mmHg 84%
    09:00 +24°C° 0,2 mm 3 m/s 749 mmHg 80%
    10:00 +24°C° 0,9 mm 3 m/s 749 mmHg 79%
    11:00 +25°C° 0,9 mm 2 m/s 749 mmHg 78%
    12:00 +25°C° 0,9 mm 1 m/s 749 mmHg 77%
    13:00 +25°C° 0,3 mm 2 m/s 749 mmHg 76%
    14:00 +25°C° 0,3 mm 2 m/s 749 mmHg 75%
    15:00 +25°C° 0,3 mm 2 m/s 749 mmHg 74%
    16:00 +25°C° 0 mm 2 m/s 749 mmHg 75%
    17:00 +25°C° 0 mm 2 m/s 749 mmHg 76%
    18:00 +25°C° 0 mm 2 m/s 748 mmHg 77%
    19:00 +24°C° 0,1 mm 3 m/s 749 mmHg 81%
    20:00 +22°C° 0,1 mm 3 m/s 749 mmHg 85%
    21:00 +20°C° 0,1 mm 3 m/s 750 mmHg 89%
    22:00 +21°C° 0,1 mm 3 m/s 749 mmHg 86%
    23:00 +21°C° 0,1 mm 2 m/s 749 mmHg 83%

    31 Mai, Miercuri

    Timp Temperatura Precipitaţii Vânt Presiune Umiditate
    00:00 +21°C° 0,1 mm 2 m/s 749 mmHg 80%
    01:00 +21°C° 0,2 mm 2 m/s 749 mmHg 79%
    02:00 +20°C° 0,2 mm 2 m/s 749 mmHg 78%
    03:00 +20°C° 0,2 mm 2 m/s 749 mmHg 77%
    04:00 +21°C° 0,1 mm 3 m/s 749 mmHg 74%
    05:00 +22°C° 0,1 mm 3 m/s 749 mmHg 70%
    06:00 +24°C° 0,1 mm 3 m/s 750 mmHg 67%
    07:00 +26°C° 0 mm 2 m/s 750 mmHg 58%
    08:00 +28°C° 0 mm 2 m/s 750 mmHg 49%
    09:00 +30°C° 0 mm 2 m/s 750 mmHg 40%
    10:00 +30°C° 0 mm 2 m/s 750 mmHg 37%
    11:00 +31°C° 0 mm 2 m/s 750 mmHg 35%
    12:00 +33°C° 0 mm 3 m/s 750 mmHg 32%
    13:00 +33°C° 0 mm 3 m/s 750 mmHg 36%
    14:00 +31°C° 0 mm 3 m/s 750 mmHg 40%
    15:00 +30°C° 0 mm 4 m/s 750 mmHg 44%
    16:00 +29°C° 0 mm 3 m/s 750 mmHg 51%
    17:00 +28°C° 0 mm 3 m/s 750 mmHg 58%
    18:00 +26°C° 0 mm 2 m/s 750 mmHg 65%
    19:00 +25°C° 0 mm 2 m/s 750 mmHg 69%
    20:00 +25°C° 0 mm 2 m/s 750 mmHg 74%
    21:00 +24°C° 0 mm 1 m/s 751 mmHg 78%
    22:00 +23°C° 0 mm 1 m/s 750 mmHg 78%
    23:00 +23°C° 0 mm 1 m/s 750 mmHg 78%

    1 Iunie, Joi

    Timp Temperatura Precipitaţii Vânt Presiune Umiditate
    00:00 +23°C° 0 mm 1 m/s 750 mmHg 78%
    01:00 +21°C° 0 mm 2 m/s 750 mmHg 77%
    02:00 +21°C° 0 mm 2 m/s 750 mmHg 77%
    03:00 +21°C° 0 mm 2 m/s 749 mmHg 76%
    04:00 +23°C° 0 mm 2 m/s 750 mmHg 71%
    05:00 +24°C° 0 mm 2 m/s 750 mmHg 65%
    06:00 +26°C° 0 mm 2 m/s 750 mmHg 60%
    07:00 +28°C° 0 mm 2 m/s 750 mmHg 50%
    08:00 +30°C° 0 mm 2 m/s 750 mmHg 41%
    09:00 +33°C° 0 mm 3 m/s 750 mmHg 31%
    10:00 +34°C° 0 mm 3 m/s 750 mmHg 29%
    11:00 +35°C° 0 mm 3 m/s 750 mmHg 27%
    12:00 +35°C° 0 mm 4 m/s 750 mmHg 25%
    13:00 +36°C° 0 mm 4 m/s 749 mmHg 27%
    14:00 +36°C° 0 mm 5 m/s 749 mmHg 28%
    15:00 +36°C° 0 mm 5 m/s 748 mmHg 30%
    16:00 +34°C° 0 mm 5 m/s 748 mmHg 35%
    17:00 +33°C° 0 mm 5 m/s 748 mmHg 41%
    18:00 +30°C° 0 mm 5 m/s 748 mmHg 47%
    19:00 +28°C° 0 mm 5 m/s 748 mmHg 51%
    20:00 +26°C° 0 mm 4 m/s 749 mmHg 55%
    21:00 +25°C° 0 mm 4 m/s 749 mmHg 60%
    22:00 +25°C° 0 mm 4 m/s 749 mmHg 53%
    23:00 +25°C° 0 mm 4 m/s 749 mmHg 47%
    Arată mai mult